Location: Newark
(52.4787°S, 179.0532°W)
Time: 12:44:23
(UTC+00:00)

Transit 2A Rocket - Pass Details

Date: 22 November 2019
Orbit: 594 x 909 km, 66.7° (Epoch: 05 December)

Event Time Altitude Azimuth Distance (km) Brightness Sun altitude
Rises 01:27:34 0° 241° (WSW) 3,522 8.5 51.7°
Reaches altitude 10° 01:30:43 10° 225° (SW) 2,609 7.9 51.3°
Maximum altitude 01:35:19 21° 177° (S) 1,933 7.0 50.9°
Drops below altitude 10° 01:39:55 10° 128° (SE) 2,618 7.5 50.4°
Sets 01:43:05 0° 112° (ESE) 3,538 8.1 50.0°
